Location: Chmeln�
(49.6483°N, 14.9871°E)
Time: 07:53:47
(UTC+00:00)

Cosmos 1025 Rocket - Pass Details

Date: 18 September 2020
Orbit: 595 x 617 km, 82.5° (Epoch: 24 October)

Event Time Altitude Azimuth Distance (km) Brightness Sun altitude
Rises 18:45:20 0° 348° (NNW) 2,885 7.0 -16.4°
Reaches altitude 10° 18:47:34 10° 346° (NNW) 1,980 6.1 -16.8°
Maximum altitude 18:51:56 72° 263° (W) 650 3.2 -17.4°
Enters shadow 18:56:07 11° 179° (S) 1,908 5.3 -18.0°
